S-NET A (43188 NORAD) Tracking and Keplerian Element Data

This shows tracking and keplerian element data for the satellite.

Feedback or suggestion? Click here.




ElementValue
Catalog43188
NameS-NET A
Epoch Orbit19789
Epoch Day259.32201501
Epoch Year2021
RAAN165.2548
Inclination97.6688
Eccentricity0.0011719
Argument of Perigee131.8741
Mean Anonmoly228.3483
Mean Motion14.97134171
Decay Rate-1.29E-06
L11 43188U 18014J 21259.32201501 -.00000129 00000-0 -62014-5 0 9993
L22 43188 97.6688 165.2548 0011719 131.8741 228.3483 14.97134171197897

Live tracking and technical data element details for S-NET A (NORAD 43188). S-NET A can be tracked NOW for your location showing map with azimuth and elevation plus other details from your city location.

Track the satellite on the map from your city or location and see movement details for azimuth, elevation, latitude, longitude, range, height, and movement on the map or in text.







IsCatalogInMostPopularTable: catalog: 43188, numindb: 630
Update: records affected: 1



GetName: 43188 S-NET A

Hit Count: updated at: Sat, 18 Sep 2021 10:16:30 GMT